Orbital Elements at Epoch 2459200.5 (2020-Dec-17.0) TDB
Reference: JPL 18 (heliocentric ecliptic J2000)
Element | Value | Uncertainty (1-sigma) | Units |
e | .1693623310003609 | 2.9562e-08 | |
a | 2.281712519287049 | 7.8118e-09 | au |
q | 1.895276368347888 | 6.7757e-08 | au |
i | 4.748655340653441 | 4.2808e-06 | deg |
node | 203.3031275073336 | 4.0402e-05 | deg |
peri | 81.22519881574817 | 4.2575e-05 | deg |
M | 127.2736585433949 | 1.292e-05 | deg |
tp | 2458755.432540765109 (2019-Sep-28.93254077) | 4.4898e-05 | TDB |
period | 1258.895887478014 3.45 | 6.465e-06 1.77e-08 | d yr |
n | .2859648709483032 | 1.4686e-09 | deg/d |
Q | 2.66814867022621 | 9.1348e-09 | au |
|
| | Orbit Determination Parameters
Additional Information
|